Regional Weather Roundup
Issued by NWS Sterling, VA

Home | Current Version | Previous Version | Text Only | Print | Product List | Glossary On
Versions: 1 2 3 4 5 6 7 8 9 10 11 12 13 14 15 16 17 18 19 20 21 22 23 24 25 26 27 28 29 30 31 32 33 34 35 36 37 38 39 40 41 42 43 44 45 46 47 48 49 50
000
ASUS41 KLWX 102210
RWRLWX

REGIONAL WEATHER ROUNDUP
NATIONAL WEATHER SERVICE BALTIMORE MD/WASHINGTON DC
600 PM EDT THU JUL 10 2014

Note: "FAIR" indicates few or no clouds below 12,000 feet
with no significant weather and/or obstructions to visibility.
 TC=TEMPERATURE CELSIUS

 * =Non NWS site. Station does not report precipitation (e.g. rain,
    snow, etc.), thunder, or fog.

DCZ001-MDZ009-015-VAZ040>042-051-053>054-102300-
WASHINGTON METRO

CITY           SKY/WX    TMP DP  RH WIND       PRES   REMARKS
WASHINGTON NAT PTSUNNY   85  68  56 SE8       30.03F
DULLES         TSTM      77  70  78 SE10      30.03S
ANDREWS AFB    PTSUNNY   82  72  71 E13       30.03F
FT BELVOIR     DRIZZLE   81  67  62 SE5       30.03F
QUANTICO       PTSUNNY   81  70  69 S7        30.04S
COLLEGE PARK*  PTSUNNY   81  72  74 E5        30.03S
LEESBURG*      PTSUNNY   86  64  48 NE3       30.03F
GAITHERSBURG*  PTSUNNY   75  68  78 E5        30.09R THUNDER

$$

MDZ006>007-011-014-102300-
BALTIMORE METRO

CITY           SKY/WX    TMP DP  RH WIND       PRES   REMARKS
BWI AIRPORT    PTSUNNY   80  69  69 E12       30.03F
MD SCIENCE CTR   N/A     82  68  62 MISG      30.04S
MARTIN STATE   PTSUNNY   82  72  69 E7        30.05F
ANNAPOLIS      PTSUNNY   78  68  71 E12       30.05S
FORT MEADE*    MOSUNNY   79  68  69 SE7       30.06S

$$

MDZ012-015-019>023-102300-
MARYLAND EASTERN SHORE

CITY           SKY/WX    TMP DP  RH WIND       PRES   REMARKS
OCEAN CITY     LGT RAIN  75  73  93 SW5       30.06F FOG
SALISBURY      LGT RAIN  79  73  82 NW5       30.08R
BAY BRIDGE AP*   N/A     79  66  65 SE10      30.05S
CAMBRIDGE*     CLOUDY    73  66  78 E10       30.07R
EASTON*        PTSUNNY   73  73 100 SE6       30.10R

$$

MDZ017>025-102300-
SOUTHERN MARYLAND

CITY           SKY/WX    TMP DP  RH WIND       PRES   REMARKS
PATUXENT RIVER LGT RAIN  76  73  91 SE5       30.04F
ST INIGOES     LGT RAIN  76  72  87 SE5       30.03F FOG
LEONARDTOWN*   CLOUDY    75  70  83 MISG      30.05

$$

MDZ003>005-102300-
NORTH CENTRAL MARYLAND

CITY           SKY/WX    TMP DP  RH WIND       PRES   REMARKS
FREDERICK*     NOT AVBL
HAGERSTOWN APT PTSUNNY   76  63  64 E7        30.07R
WESTMINSTER*   PTSUNNY   82  64  54 CALM      30.07R

$$

MDZ501>502-102300-
WESTERN MARYLAND

CITY           SKY/WX    TMP DP  RH WIND       PRES   REMARKS
OAKLAND*       PTSUNNY   72  55  56 N3        30.17S
CUMBERLAND*    PTSUNNY   79  68  69 CALM      30.09F

$$

VAZ025>031-102300-
SHENANDOAH VALLEY

CITY           SKY/WX    TMP DP  RH WIND       PRES   REMARKS
WINCHESTER*    PTSUNNY   77  66  69 CALM      30.07S
STAUNTON*      PTSUNNY   75  57  52 N8        30.10R

$$

WVZ021-048>050-054>055-102300-
EASTERN WEST VIRGINIA PANHANDLE

CITY           SKY/WX    TMP DP  RH WIND       PRES   REMARKS
MARTINSBURG    PTSUNNY   79  58  48 NW7       30.07R
PETERSBURG*    PTSUNNY   66  59  78 CALM      30.10F

$$

VAZ036>039-050-102300-
CENTRAL FOOTHILLS

CITY           SKY/WX    TMP DP  RH WIND       PRES   REMARKS
CHARLOTTESVILL MOSUNNY   81  65  58 S6        30.05R
ORANGE*        MOSUNNY   81  68  65 SE3       30.06S

$$

VAZ055>057-102300-
NORTH AND CENTRAL PIEDMONT

CITY           SKY/WX    TMP DP  RH WIND       PRES   REMARKS
FREDERICKSBRG* CLOUDY    83  72  69 S6        30.03S
STAFFORD*      PTSUNNY   82  71  68 SE3       30.08R

$$

NCZ024-NYZ072-PAZ021-071-VAZ022-071-102300-
OTHER REGIONAL OBSERVATIONS

CITY           SKY/WX    TMP DP  RH WIND       PRES   REMARKS
NEW YORK CITY  SUNNY     79  61  53 CALM      30.11S
PHILADELPHIA   PTSUNNY   84  62  47 SE10      30.06S
PITTSBURGH     MOSUNNY   79  56  45 VRB6      30.09F
ROANOKE        PTSUNNY   81  63  54 SE10      30.08S
RICHMOND       CLOUDY    76  71  85 SE13      30.03F
RALEIGH        CLOUDY    78  69  73 NE8       30.06S THUNDER

$$

ANZ530>537-102300-
MARINE OBSERVATIONS

STATION/POSITION TIME  TEMP    WIND        PRES
                       AIR SEA DIR/SP/G
                 (UTC) (F)     (DEG/KT/KT) (MB)
THOMAS PT LIGHT  2200   77 79   90/ 13/ 13 1017.8F
BALT KEY BRIDGE  2200   79     120/ 14/ 18 1016.8F
COVE POINT       2200   76     190/ 12/ 12 1017.4F
LEWISETTA        2200   76 80  100/  3/  4 1017.0F
SOLOMONS ISLAND  2200      80                N/A
PINEY POINT      2200          170/ 10/ 12   N/A

$$



USA.gov is the U.S. government's official web portal to all federal, state and local government web resources and services.